TimeCDT,TemperatureF,Dew PointF,Humidity,Sea Level PressureIn,VisibilityMPH,Wind Direction,Wind SpeedMPH,Gust SpeedMPH,PrecipitationIn,Events,Conditions,WindDirDegrees,DateUTC
12:53 AM,62.1,60.1,93,30.01,7.0,Calm,Calm,-,N/A,,Clear,0,2013-10-12 05:53:00
1:53 AM,60.1,57.9,93,30.01,7.0,Calm,Calm,-,N/A,,Clear,0,2013-10-12 06:53:00
2:53 AM,60.1,57.9,93,30.00,7.0,Calm,Calm,-,N/A,,Clear,0,2013-10-12 07:53:00
3:53 AM,59.0,55.9,90,30.01,6.0,Calm,Calm,-,N/A,,Clear,0,2013-10-12 08:53:00
4:45 AM,57.2,55.4,94,30.03,7.0,Calm,Calm,-,N/A,,Scattered Clouds,0,2013-10-12 09:45:00
4:53 AM,57.0,55.9,96,30.02,2.5,Calm,Calm,-,N/A,,Scattered Clouds,0,2013-10-12 09:53:00
5:07 AM,55.4,55.4,100,30.03,10.0,Calm,Calm,-,N/A,,Partly Cloudy,0,2013-10-12 10:07:00
5:53 AM,57.0,55.0,93,30.03,9.0,Calm,Calm,-,N/A,,Clear,0,2013-10-12 10:53:00
6:25 AM,57.2,55.4,94,30.05,6.0,Calm,Calm,-,N/A,,Partly Cloudy,0,2013-10-12 11:25:00
6:53 AM,57.0,55.0,93,30.05,6.0,Calm,Calm,-,N/A,,Clear,0,2013-10-12 11:53:00
7:08 AM,57.2,55.4,94,30.05,6.0,Calm,Calm,-,N/A,,Scattered Clouds,0,2013-10-12 12:08:00
7:53 AM,59.0,57.0,93,30.06,5.0,Calm,Calm,-,N/A,,Clear,0,2013-10-12 12:53:00
8:53 AM,66.0,62.1,87,30.07,9.0,Calm,Calm,-,N/A,,Clear,0,2013-10-12 13:53:00
9:53 AM,71.1,63.0,75,30.08,10.0,SSW,4.6,-,N/A,,Scattered Clouds,200,2013-10-12 14:53:00
10:53 AM,75.0,66.0,73,30.09,10.0,South,3.5,-,N/A,,Clear,190,2013-10-12 15:53:00
11:53 AM,80.1,66.9,64,30.08,10.0,West,5.8,-,N/A,,Clear,280,2013-10-12 16:53:00
12:53 PM,81.0,66.9,62,30.08,10.0,NW,6.9,-,N/A,,Clear,310,2013-10-12 17:53:00
1:53 PM,82.0,64.0,54,30.06,10.0,Variable,5.8,-,N/A,,Partly Cloudy,0,2013-10-12 18:53:00
2:53 PM,81.0,64.9,58,30.05,10.0,North,4.6,-,N/A,,Partly Cloudy,350,2013-10-12 19:53:00
3:53 PM,75.9,63.0,64,30.06,10.0,NNW,4.6,-,N/A,,Scattered Clouds,330,2013-10-12 20:53:00
4:53 PM,73.9,64.0,71,30.01,10.0,NE,3.5,-,N/A,,Clear,50,2013-10-12 21:53:00
5:53 PM,75.0,64.0,69,30.03,10.0,North,4.6,-,N/A,,Clear,10,2013-10-12 22:53:00
6:53 PM,72.0,64.9,78,30.04,10.0,Calm,Calm,-,N/A,,Clear,0,2013-10-12 23:53:00
7:53 PM,70.0,64.9,84,30.07,10.0,Calm,Calm,-,N/A,,Clear,0,2013-10-13 00:53:00
8:53 PM,69.1,64.9,87,30.08,10.0,Calm,Calm,-,N/A,,Clear,0,2013-10-13 01:53:00
9:53 PM,69.1,64.9,87,30.09,10.0,Calm,Calm,-,N/A,,Clear,0,2013-10-13 02:53:00
10:53 PM,66.9,64.0,90,30.11,10.0,Calm,Calm,-,N/A,,Clear,0,2013-10-13 03:53:00
11:53 PM,66.0,64.0,93,30.11,10.0,NE,4.6,-,N/A,,Clear,50,2013-10-13 04:53:00